Tracking 25995 objects as of 19-Aug-2022
HD Live streaming from Space Station
objects crossing your sky now

STARLINK-3986

Track STARLINK-3986 now!
10-day predictions
STARLINK-3986 is classified as:


NORAD ID: 52623
Int'l Code: 2022-052AB
Perigee: 545.6 km
Apogee: 547.9 km
Inclination: 53.2 °
Period: 95.4 minutes
Semi major axis: 6917 km
RCS: Unknown
Launch date: May 14, 2022
Source: United States (US)
Launch site: AIR FORCE EASTERN TEST RANGE (AFETR)
aabbcc
Your satellite tracking list
Your tracking list is empty




NASA's NSSDC Master Catalog

Two Line Element Set (TLE):
1 52623U 22052AB  22230.91667824 -.00053905  00000-0 -33909-2 0  9991
2 52623  53.2168 339.5446 0001698  54.6776  63.3180 15.08876568  1307
Source of the keplerian elements: AFSPC